FENGYUN 1C DEB

Satellite information

Favourite Embed

Satellite Type and Status

DEBRISIN ORBIT

Key statistics

Satellite FENGYUN 1C DEB at a glance.

Uptime

9714

Days in orbit

Revolutions

≈ 14.4

Per day

Orbit

SSO

Sun Synchronous Orbit

Inclination

98.9

Latest

Satellite identification and parameters

Extended collection of information and parameters for FENGYUN 1C DEB.

Object identification

Identified? True

Debris? True

Object name: FENGYUN 1C DEB

International designator: 1999-025AZP

Object number (NORAD): 30925

Object ID (CCSDS): 30925

Country: PEOPLES REPUBLIC OF CHINA (PRC)

Current information (Y/N): Y

RCS size: SMALL

Orbital parameters

Period: 99.786 minutes

Inclination: 98.8812 deg

SMA: 7126.439 km

Apoapsis: 771.88 km

Periapsis: 724.729 km

RAAN: 117.0445 deg

Eccentricy: 0.00330821

Argument of periapsis: 241.4994 deg

Mean anomaly: 149.4928 deg

Mean motion: 14.43091486 rev/day

Mean motion (dot): 0.00017166 rev/day2

B* drag term: 0.0050847647 1/REarth

Two-line elements (TLE)

Creation date: Dec. 11, 2025, 7:14 p.m.

Reference frame: TEME

Reference center: EARTH

Epoch: Dec. 11, 2025, 7:45 a.m. UTC

TLE line 0: 0 FENGYUN 1C DEB

TLE line 1: 1 30925U 99025AZP 25345.32347322 .00017166 00000-0 50848-2 0 9997

TLE line 2: 2 30925 98.8812 117.0445 0033082 241.4994 149.4928 14.43091486970528

Live tracking on map

Real-time ground track for satellite FENGYUN 1C DEB.

In-orbit conjunctions

A list of the most updated potential collisions computed for object FENGYUN 1C DEB.

Target Orbit TCA Probability of collision Miss distance Type
ATLAS AGENA D R/B LEO 2025-10-27 23:46:14 0.0002208163 459.0 (m) ROCKET BODY
IRIDIUM 44 LEO 2025-09-09 08:31:37 0.0001808717 265.0 (m) PAYLOAD
CZ-6A DEB LEO 2025-01-28 18:59:19 0.0001037151 422.0 (m) DEBRIS
DELTA 1 DEB MEO 2024-11-15 20:16:38 0.0001584062 598.0 (m) DEBRIS

Associated space launch

Chinese polar orbiting meteorological satellite

FENGYUN 1C DEB was lifted into orbit during the mission ‘Long March 4B | Feng Yun 1C’, on board a Long March 4B space rocket.

The launch took place on May 10, 1999, 1:33 a.m. from Launch Complex 7.

For more information about the launch, click the button.

Launch to space Long March 4B | Feng Yun 1C
Long March 4B | Feng Yun 1C

Agency: N/A

Status: Launch Successful

Launch date: May 10, 1999, 1:33 a.m. UTC

Rocket: Long March 4B

Launch pad: Launch Complex 7

Location: Taiyuan Satellite Launch Center, People's Republic of China

...

Latest news about this satellite

There are no fresh news available about this satellite. Check back as we update our databases every day.


Newsletter sign-up

Weekly statistics, charts and insights to help you stay on top of the space industry.